Tracking 20945 objects as of 9-Jul-2020
HD Live streaming from Space Station
objects crossing your sky now

COSMOS 2251 DEB

Track COSMOS 2251 DEB now!
10-day predictions


NORAD ID: 34634
Int'l Code: 1993-036XF
Perigee: 700.7 km
Apogee: 772.0 km
Inclination: 74.1 °
Period: 99.4 minutes
Semi major axis: 7107 km
RCS: 0.0116 m2 (small)
Launch date: June 16, 1993
Source: Commonwealth of Independent States (former USSR) (CIS)
Launch site: PLESETSK MISSILE AND SPACE COMPLEX (PKMTR)

Note: This is SATELLITE DEBRIS
aabbcc
Your satellite tracking list
Your tracking list is empty




NASA's NSSDC Master Catalog

Two Line Element Set (TLE):
1 34634U 93036XF  20191.37504144  .00000113  00000-0  36728-4 0  9997
2 34634  74.0529 159.9602 0050130  49.3403 111.6167 14.48908138600996
Source of the keplerian elements: AFSPC